Regional Weather Roundup
Issued by NWS

Home | Current Version | Previous Version | Text Only | Print | Product List | Glossary On
Versions: 1 2 3 4 5 6 7 8 9 10 11 12 13 14 15 16 17 18 19 20 21 22 23 24 25 26 27 28 29 30 31 32 33 34 35 36 37 38 39 40 41 42 43 44 45 46 47 48 49 50
000
ASHW40 PHFO 141330
RWRHI

WEATHER ROUNDUP FOR HAWAII
NATIONAL WEATHER SERVICE HONOLULU HI
300 AM HST MON JUL 14 2014

THIS IS AN AUTOMATED REPORT THAT HAS NOT BEEN QUALITY CONTROLLED.

NOTE..."FAIR" INDICATES FEW OR NO CLOUDS BELOW 12,000 FEET WITH NO
SIGNIFICANT WEATHER AND/OR OBSTRUCTIONS TO VISIBILITY.

* - THESE SITES REPORT LIMITED FIELDS

HIZ001>004-141400-
KAUAI-NIIHAU-

CITY           SKY/WX    TMP DP  RH WIND       PRES   REMARKS
LIHUE APT      MOCLDY    78  74  87 E14       30.06F
PORT ALLEN*      N/A     77 N/A N/A E8          N/A
POIPU*           N/A     77 N/A N/A NE7G13      N/A
PRINCEVILLE*   NOT AVBL
KOKOLE POINT*  NOT AVBL
MOLOAA DAIRY*  NOT AVBL
WAIMEA HTS*    NOT AVBL
PUU OPAE*      NOT AVBL
PUU LUA*       NOT AVBL
MAKAHA RIDGE*  NOT AVBL
$$

HIZ005>011-141400-
OAHU-

CITY           SKY/WX    TMP DP  RH WIND       PRES   REMARKS
HONOLULU       MOCLDY    80  72  76 NE3       30.03S
KALAELOA       PTCLDY    77  72  83 CALM      30.04S
KANEOHE MCB    CLOUDY    75  71  87 E12G17    30.04S
WHEELER FIELD  LGT RAIN  73  72  94 W2        30.05S FOG
BELLOWS*         N/A    N/A N/A N/A E16         N/A
KAHUKU*          N/A    N/A N/A N/A E8          N/A
WHEELER*       NOT AVBL
WAIANAE HARBOR NOT AVBL
DILLINGHAM*      N/A     75  70  83 SE1         N/A
KAHUKU TRN*      N/A     73  73 100 E9G20       N/A
KAWAILOA*      NOT AVBL
KII*             N/A     77  75  94 E13G21      N/A
MAKUA RANGE*     N/A     73  70  88 SE3         N/A
OAHU FOREST NW NOT AVBL
SCHOFIELD BRK*   N/A     73  70  88 SE1         N/A
SCHOFIELD S*   NOT AVBL
WAIANAE VLY*   NOT AVBL
KUAOKALA*      NOT AVBL
HONOULIUULI*   NOT AVBL
MOKUOLOE IS*     N/A    N/A N/A N/A MISG        N/A
PALEHUA*       NOT AVBL
WAIAWA PHB*    NOT AVBL
$$

HIZ012>013-141400-
MOLOKAI-

CITY           SKY/WX    TMP DP  RH WIND       PRES   REMARKS
MOLOKAI AIRPT  CLEAR     76  76 100 NE9G20    30.03S
KALAUPAPA      NOT AVBL
MAKAPULAPAI*   NOT AVBL
MOLOKAI 1*     NOT AVBL
PUU ALII*        N/A     64  64  99 SE2G9       N/A
$$

HIZ016-141400-
KAHOOLAWE-

CITY           SKY/WX    TMP DP  RH WIND       PRES   REMARKS
KAHOOLAWE*     NOT AVBL
HAKIOAWA*        N/A     73  72  96 MISG      30.15R
HONOKANAIA*      N/A     80  71  75 NE12G23   30.03S
KANELOA*         N/A     75  70  83 E17G28    30.12S
KEALIALALO*      N/A    N/A N/A N/A E6G18     30.33S
LUA MAKIKA*    NOT AVBL
$$

HIZ014>015-141400-
LANAI-

CITY           SKY/WX    TMP DP  RH WIND       PRES   REMARKS
LANAI CITY     FAIR      73  73 100 N7        30.08S
LANAI 1*       NOT AVBL
$$

HIZ017>028-141400-
MAUI-

CITY           SKY/WX    TMP DP  RH WIND       PRES   REMARKS
KAHULUI        CLOUDY    75  71  87 SE7       30.01F
KAPALUA-W MAUI NOT AVBL
HANA AIRPORT     N/A     75  73  94 SE3       30.06S
HANA*            N/A     77 N/A N/A SE5         N/A
HALEAKALA SUMM   N/A     46  36  66 N8          N/A
MAALAEA BAY*   NOT AVBL
HALEAKALA*     NOT AVBL
KAUPO GAP*     NOT AVBL
KULA 1*          N/A     59  44  57 E6          N/A
$$

HIZ023>026-141400-
BIG ISLAND OF HAWAII COAST AND LOWER SLOPES-

CITY           SKY/WX    TMP DP  RH WIND       PRES   REMARKS
KAILUA KONA    CLOUDY    79  68  69 SE5       29.99S
HILO           LGT RAIN  75  73  93 CALM      30.03F
HONOKAA*       NOT AVBL
KAWAIHAE MWT*    N/A     81 N/A N/A CALM        N/A
KAWAIHAE*        N/A     81 N/A N/A E1          N/A
SOUTH POINT*     N/A     72 N/A N/A NE14        N/A
UPOLU AIRPORT*   N/A    N/A N/A N/A E15G22      N/A
KAMUELA*       SUNNY     63  59  88 CALM      30.13S
HAKALAU*         N/A     56  55  95 SW7         N/A
KALOKO-HONOKO*   N/A     75  66  73 NE3       29.98F
PALI 2*          N/A     66  66 100 E6G12       N/A
KEALAKOMO*       N/A     79  77  94 N2          N/A
KAUPULEHU*     NOT AVBL
KAPAPALA*        N/A     70  68  94 NE3G9       N/A
LOWER KAHUKU*  NOT AVBL
PUHE CS*       NOT AVBL
PUHO CS*         N/A     75  62  62 E2          N/A
PTA KEAMUKU*     N/A     63  57  82 S7          N/A
WAIKOLOA*      NOT AVBL
$$

HIZ027>028-141400-
BIG ISLAND OF HAWAII INTERIOR AND SUMMMITS-

CITY           SKY/WX    TMP DP  RH WIND       PRES   REMARKS
BRADSHAW FIELD MOCLDY    59  52  78 SE5       30.39S
MK VISITOR CEN NOT AVBL
MAUNA KEA*       N/A     36  28  75 S5          N/A
MAUNA LOA*       N/A     41  37  87 MISG        N/A
MAUNA LOA 1*   NOT AVBL
PTA KIPUKA*      N/A     55  54  94 SE3         N/A
PTA RANGE 17*    N/A     61  57  88 S12G17      N/A
PTA WEST*        N/A    N/A N/A N/A SE6         N/A
NENE CABIN*    NOT AVBL
AHUMOA*        NOT AVBL
PTA PORTABLE*  NOT AVBL
PUU MALI*      NOT AVBL
$$

HIC003-141400-
NORTHWEST ISLANDS-

CITY           SKY/WX    TMP DP  RH WIND       PRES   REMARKS
MIDWAY ISLAND  MOCLDY    77  73  88 E7          N/A
MIDWAY NOS*    NOT AVBL
FRENCH FRIGATE NOT AVBL
$$

PHZ110>124-180-141400-
BUOY REPORTS

STATION/POSITION TIME  TEMP    WIND        PRES    WAVE   SWELL
                       AIR SEA DIR/SP/G            HT/PER HT/DIR
                 (UTC) (F)     (DEG/KT/KT) (MB)    (FT/S) (FT/D)
BUOY 51001       NOT AVBL
BUOY 51101       1300   78 79   90/ 12/ 14 1018.2F   5/ 8   5/ 90
BUOY 51100       1200   77 77   90/ 14/ 16 1019.1F
BUOY 51003       1300   80 81   50/ 10/ 12 1016.0F   6/15   5
BUOY 51004       1223   78 79   90/ 14/ 17 1015.8F   7/16   5/140
BARBERS PT BUOY  NOT AVBL
WAIMEA BAY BUOY  1300      80                N/A     3/14   2/300
KAILUA BAY BUOY  1300      79                N/A     7/ 7   2/100
LANAI BUOY       1300      80                N/A     3/13   2/200
BARBERS PT 2     1300      80                N/A     4/15   3/190
PAUWELA MAUI     1300      79                N/A     6/ 8   2/ 90
HILO             NOT AVBL
KANEOHE BAY BUOY 1300      79                N/A     5/ 8   2/ 80
HANALEI KAUAI    1300      79                N/A     5/ 8   2/290
KAHULUI HARBOR   1300   77 80  110/  4/  5 1015.8F
HONOLULU HARBOR  1300   79      80/  2/  4 1017.0F
KILO NALU        NOT AVBL
HILO HARBOR      1300   74     200/  5/  5 1016.4F
MOKUOLOE         1300   77 81   90/ 13/ 14 1017.3F
NAWILIWILI       1300      80                N/A
WHOTS BUOY       NOT AVBL
BUOY 51028       NOT AVBL
$$

......................KEY........................................
  SKY/WX - SKY CONDITIONS/PRESENT WEATHER
  TMP    - TEMPERATURE IN FAHRENHEIT
  DWPT   - DEWPOINT IN FAHRENHEIT
  RH     - RELATIVE HUMIDITY IN PERCENT
  WIND   - DIRECTION AND SPEED /MPH FOR ISLANDS...KTS FOR BUOYS/
  PRES   - MEAN SEA LEVEL PRESSURE IN INCHES OF HG
  VSB    - VISIBILITY IN MILES
  HX     - HEAT INDEX
  WCI    - WIND CHILL INDEX
  VRB    - VARIABLE WIND DIRECTION
  N/A    - NOT AVAILABLE


USA.gov is the U.S. government's official web portal to all federal, state and local government web resources and services.